Change the Weather History Date:

Tuesday, March 5, 2013

  Actual Average Record
Temperature  
Mean Temperature 28 °F 32 °F  
Max Temperature 37 °F 37 °F 46 °F (2005)
Min Temperature 19 °F 26 °F -7 °F (1956)
Degree Days  
Heating Degree Days 37 33  
Month to date heating degree days 163 166  
Since 1 July heating degree days 6234 6003  
Cooling Degree Days 0 0  
Month to date cooling degree days 0 0  
Year to date cooling degree days 0 0  
Moisture  
Dew Point 19 °F    
Average Humidity 70    
Maximum Humidity 96    
Minimum Humidity 44    
Precipitation  
Precipitation 0.00 in 0.14 in 0.63 in (2010)
Month to date precipitation 0.24 0.69  
Year to date precipitation 14.55 10.17  
Snow  
Snow 0.00 in 0.50 in 6.80 in (1948)
Month to date snowfall 0.0 2.6  
Since 1 July snowfall 63.4 76.6  
Snow Depth 0.00 in    
Sea Level Pressure  
Sea Level Pressure 30.11 in    
Wind  
Wind Speed 2 mph (WSW)    
Max Wind Speed 9 mph    
Max Gust Speed 12 mph    
Visibility 10 miles    
Events      
T = Trace of Precipitation, MM = Missing Value Source: NWS Daily Summary

Daily Weather History Graph

Daily Weather History Graph

Search for Another Location

Airport or City:

Trip Planner

Search our weather history database for the weather conditions in past years. The results will help you decide how hot, cold, wet, or windy it might be!

Date:

Astronomy

Mar. 05, 2013 Rise Set
Actual Time 6:41 AM AKST 5:39 PM AKST
Civil Twilight 6:01 AM AKST 6:18 PM AKST
Nautical Twilight 5:15 AM AKST 7:04 PM AKST
Astronomical Twilight 4:28 AM AKST 7:52 PM AKST
Moon 3:03 AM AKST (3/5) 10:23 AM AKST (3/5)
Length of Visible Light 12h 17m
Length of Day
10h 57m
Last Quarter, 39% of the Moon is Illuminated
Mar 5
Last Quarter
Mar 11
New
Mar 19
First Quarter
Mar 27
Full
Apr 2
Last Quarter

Hourly Weather History & Observations

Time (AKST) Temp. Windchill Dew Point Humidity Pressure Visibility Wind Dir Wind Speed Gust Speed Precip Events Conditions
12:53 AM 21.9 °F - 19.9 °F 92% 30.29 in 10.0 mi Calm Calm - N/A   Clear
1:53 AM 21.0 °F - 19.0 °F 92% 30.28 in 10.0 mi Calm Calm - N/A   Clear
3:53 AM 19.9 °F - 18.0 °F 92% 30.24 in 10.0 mi Calm Calm - N/A   Clear
4:53 AM 19.9 °F - 18.0 °F 92% 30.23 in 10.0 mi Calm Calm - N/A   Clear
5:53 AM 19.9 °F - 18.0 °F 92% 30.21 in 10.0 mi Calm Calm - N/A   Clear
6:53 AM 19.9 °F - 17.1 °F 89% 30.20 in 10.0 mi Calm Calm - N/A   Clear
7:53 AM 21.0 °F - 18.0 °F 88% 30.18 in 10.0 mi Calm Calm - N/A   Clear
8:53 AM 26.1 °F - 21.0 °F 81% 30.17 in 10.0 mi Calm Calm - N/A   Partly Cloudy
9:53 AM 28.9 °F - 23.0 °F 78% 30.15 in 10.0 mi Calm Calm - N/A   Clear
10:53 AM 32.0 °F 28.7 °F 19.9 °F 61% 30.13 in 10.0 mi WSW 3.5 mph - N/A   Clear
11:53 AM 35.1 °F 31.0 °F 18.0 °F 50% 30.12 in 10.0 mi WSW 4.6 mph - N/A   Clear
12:53 PM 36.0 °F 29.0 °F 17.1 °F 46% 30.10 in 10.0 mi WSW 9.2 mph - N/A   Clear
1:53 PM 37.0 °F 32.4 °F 17.1 °F 44% 30.08 in 10.0 mi WSW 5.8 mph - N/A   Clear
2:53 PM 37.0 °F 31.6 °F 17.1 °F 44% 30.05 in 10.0 mi WSW 6.9 mph - N/A   Clear
3:53 PM 36.0 °F 29.6 °F 19.9 °F 52% 30.04 in 10.0 mi WSW 8.1 mph - N/A   Partly Cloudy
4:53 PM 35.1 °F 32.2 °F 19.0 °F 52% 30.02 in 10.0 mi SSW 3.5 mph - N/A   Partly Cloudy
5:53 PM 30.9 °F 27.5 °F 17.1 °F 57% 30.01 in 10.0 mi WNW 3.5 mph - N/A   Partly Cloudy
6:53 PM 27.0 °F - 21.0 °F 78% 30.01 in 10.0 mi Calm Calm - N/A   Partly Cloudy
7:53 PM 28.0 °F - 19.9 °F 72% 30.00 in 10.0 mi Calm Calm - N/A   Partly Cloudy
8:53 PM 25.0 °F - 19.9 °F 81% 29.99 in 10.0 mi Calm Calm - N/A   Partly Cloudy
9:53 PM 24.1 °F - 19.9 °F 84% 29.99 in 10.0 mi Calm Calm - N/A   Partly Cloudy
10:53 PM 23.0 °F - 19.0 °F 85% 29.99 in 10.0 mi Calm Calm - N/A   Partly Cloudy
11:53 PM 24.1 °F - 19.9 °F 84% 29.99 in 10.0 mi Calm Calm - N/A   Partly Cloudy